Погода в Алахуэла

Коста-Рика     10°00′19″N   84°13′15″W
темп.,
°C
ветер,
м/с
пор.,
м/с
влажн.,
%
обл.,
%
осадки,
мм/ч
давл.,
гПа
погр.,
м
16 апреля, пт
пт1600:00+18св2295100 0.0 101341
03:00+18св2293100 0.0 101146
06:00+18св2393100 0.0 101280
09:00+26св1258100 0.0 1012900
12:00+27з225999 1.7 10101448
15:00+23зсз1181100 7.9 1009262
18:00+20ссв1193100 13.9 101114
21:00+19всв1195100 3.4 101418
17 апреля, сб
сб1700:00+18всв119794 6.6 101430
03:00+18в119760 0.0 101216
06:00+18св129663 0.0 101344
09:00+24зюз117381 0.6 1014791
12:00+24з118077 5.7 1013733
15:00+22зюз1286100 8.3 1011494
18:00+20юз1194100 18.7 101215
21:00+19з019798 7.4 101429
18 апреля, вс
вс1800:00+19св1298100 9.3 1013101
03:00+18св119568 0.0 101212
06:00+18св119499 0.0 101427
09:00+24юз117282 0.0 1014908
12:00+23зюз227992 1.4 1012624
15:00+23зсз1282100 5.3 1011620
18:00+19ю1196100 9.4 101321
21:00+19св1198100 3.6 101418
19 апреля, пн
пн1900:00+18ссв1198100 5.2 101319
03:00+19св1196100 0.0 101221
06:00+19св119363 0.0 101321
09:00+24юз117777 0.6 1014822
12:00+24зсз1182100 7.2 1012618
15:00+21сз1192100 8.6 101155
18:00+20св1193100 13.8 101212
21:00+19св1194100 1.7 101420
20 апреля, вт
вт2000:00+18св2193100 1.7 101330
03:00+18св119298 0.0 101214
06:00+18св2291100 0.0 101437
09:00+25зюз116581 0.1 1014937
12:00+25з217599 4.4 1013816
15:00+21зюз1294100 11.3 101188
18:00+19ссв1198100 45.4 101237
21:00+19св1197100 17.1 101533